Find Starlink 32511

NORAD ID: 61727 Int'l Des: 2024-196 Owner: SPXS Country: US Constellation: starlink operational
LEOCIRCULAR

現在のビュー

3D地球を読み込み中...

About Starlink 32511

Starlink 32511 (NORAD 61727) is a starlink constellation satellite (v2 mini) launched Oct 30, 2024 by SPXS of US. It operates in LEO, CIRCULAR orbit with a mass of 730.00 kg.

Starlink 32511について

説明を読み込み中...

次回通過

Passes for default location (London). Set your location on the main map for personalized predictions.

高度履歴

Loading altitude history...

軌道要素

1 61727U 24196W 26162.33111190 .00000041 00000-0 13516-4 0 9996
2 61727 53.1609 26.3718 0001223 97.1459 262.9681 15.30190177 91490
Epoch: Jun 11, 2026 • Age: 12 hours

現在のステータス

高度 489.7 km
速度 7.62 km/s
衛星直下点 -41.63°S, 46.15°E
打ち上げ日 Oct 30, 2024
運用期間 1.6 years
タイプ internet

技術仕様

分類 Payload
質量 730.00 kg
乾燥質量 700.00 kg
総質量 730.00 kg
長さ 0.30 m
直径 4.10 m
スパン 29.00 m
形状 Box + pan
製造者 SPXS
バスタイプ Starlink V2M
フェーズステータス In Orbit
所有者/国 SPXS/US

Most Searched